Time,TemperatureF,DewpointF,PressureIn,WindDirection,WindDirectionDegrees,WindSpeedMPH,WindSpeedGustMPH,Humidity,HourlyPrecipIn,Conditions,Clouds,dailyrainin,SoftwareType,DateUTC
2013-01-15 00:00:00,17.6,-4.8,30.09,WSW,248,4.3,4.3,36,0.00,,CLR,0.00,VWS V14.01,2013-01-15 07:00:00,
2013-01-15 00:02:00,17.6,-4.2,30.09,WSW,248,3.4,4.3,37,0.00,,CLR,0.00,VWS V14.01,2013-01-15 07:02:00,
2013-01-15 00:06:00,17.6,-4.2,30.09,WSW,248,3.6,4.0,37,0.00,,CLR,0.00,VWS V14.01,2013-01-15 07:06:00,
2013-01-15 00:08:00,17.4,-3.8,30.09,WSW,248,3.4,3.6,38,0.00,,CLR,0.00,VWS V14.01,2013-01-15 07:08:00,
2013-01-15 00:12:00,17.2,-4.0,30.09,WNW,292,3.1,4.3,38,0.00,,CLR,0.00,VWS V14.01,2013-01-15 07:12:00,
2013-01-15 00:14:00,17.1,-4.2,30.09,West,270,4.0,4.9,38,0.00,,CLR,0.00,VWS V14.01,2013-01-15 07:14:00,
2013-01-15 00:16:00,17.1,-4.2,30.09,WSW,248,4.3,5.4,38,0.00,,CLR,0.00,VWS V14.01,2013-01-15 07:16:00,
2013-01-15 00:20:00,17.2,-3.5,30.09,WSW,248,3.8,4.9,39,0.00,,CLR,0.00,VWS V14.01,2013-01-15 07:20:00,
2013-01-15 00:26:00,17.8,-3.5,30.09,WSW,248,2.7,4.3,38,0.00,,CLR,0.00,VWS V14.01,2013-01-15 07:26:00,
2013-01-15 00:30:00,18.3,-3.0,30.09,WSW,248,3.4,4.3,38,0.00,,CLR,0.00,VWS V14.01,2013-01-15 07:30:00,
2013-01-15 00:32:00,18.3,-3.0,30.09,WSW,248,3.6,3.6,38,0.00,,CLR,0.00,VWS V14.01,2013-01-15 07:32:00,
2013-01-15 00:38:00,18.3,-3.6,30.09,SW,225,2.5,2.5,37,0.00,,CLR,0.00,VWS V14.01,2013-01-15 07:38:00,
2013-01-15 00:40:00,18.5,-3.4,30.09,WSW,248,2.5,3.1,37,0.00,,CLR,0.00,VWS V14.01,2013-01-15 07:40:00,
2013-01-15 00:46:00,18.5,-2.9,30.09,WNW,292,3.6,4.7,38,0.00,,CLR,0.00,VWS V14.01,2013-01-15 07:46:00,
2013-01-15 00:48:00,18.5,-3.4,30.09,West,270,2.9,4.0,37,0.00,,CLR,0.00,VWS V14.01,2013-01-15 07:48:00,
2013-01-15 00:52:00,18.5,-2.9,30.09,WSW,248,3.1,5.6,38,0.00,,CLR,0.00,VWS V14.01,2013-01-15 07:52:00,
2013-01-15 00:54:00,18.3,-3.0,30.09,WSW,248,4.9,4.9,38,0.00,,CLR,0.00,VWS V14.01,2013-01-15 07:54:00,
2013-01-15 00:58:00,18.3,-3.0,30.12,WSW,248,4.3,4.9,38,0.00,,CLR,0.00,VWS V14.01,2013-01-15 07:58:00,
2013-01-15 01:02:00,18.5,-2.9,30.12,SW,225,4.0,5.4,38,0.00,,CLR,0.00,VWS V14.01,2013-01-15 08:02:00,
2013-01-15 01:06:00,18.5,-2.9,30.12,WNW,292,3.8,4.3,38,0.00,,CLR,0.00,VWS V14.01,2013-01-15 08:06:00,
2013-01-15 01:08:00,18.3,-3.0,30.12,WSW,248,3.8,5.6,38,0.00,,CLR,0.00,VWS V14.01,2013-01-15 08:08:00,
2013-01-15 01:10:00,18.1,-3.2,30.09,WSW,248,4.0,4.0,38,0.00,,CLR,0.00,VWS V14.01,2013-01-15 08:10:00,
2013-01-15 01:16:00,18.0,-3.3,30.09,NW,315,2.7,2.9,38,0.00,,CLR,0.00,VWS V14.01,2013-01-15 08:16:00,
2013-01-15 01:18:00,17.6,-3.7,30.09,NW,315,2.7,2.7,38,0.00,,CLR,0.00,VWS V14.01,2013-01-15 08:18:00,
2013-01-15 01:21:00,17.6,-3.7,30.09,WNW,292,3.6,3.6,38,0.00,,CLR,0.00,VWS V14.01,2013-01-15 08:21:00,
2013-01-15 01:22:00,17.6,-3.7,30.09,West,270,2.2,3.6,38,0.00,,CLR,0.00,VWS V14.01,2013-01-15 08:22:00,
2013-01-15 01:24:00,17.4,-3.8,30.09,West,270,2.5,2.9,38,0.00,,CLR,0.00,VWS V14.01,2013-01-15 08:24:00,
2013-01-15 01:30:00,17.4,-3.8,30.09,NW,315,1.3,3.1,38,0.00,,CLR,0.00,VWS V14.01,2013-01-15 08:30:00,
2013-01-15 01:35:00,17.2,-4.0,30.09,WSW,248,2.9,2.9,38,0.00,,CLR,0.00,VWS V14.01,2013-01-15 08:35:00,
2013-01-15 01:36:00,17.2,-3.5,30.09,WSW,248,3.4,4.7,39,0.00,,CLR,0.00,VWS V14.01,2013-01-15 08:36:00,
2013-01-15 01:42:00,17.2,-2.9,30.09,WSW,248,3.4,4.0,40,0.00,,CLR,0.00,VWS V14.01,2013-01-15 08:42:00,
2013-01-15 01:45:00,17.4,-2.8,30.09,WNW,292,4.3,4.3,40,0.00,,CLR,0.00,VWS V14.01,2013-01-15 08:45:00,
2013-01-15 01:46:00,17.4,-2.8,30.09,WSW,248,3.1,4.3,40,0.00,,CLR,0.00,VWS V14.01,2013-01-15 08:46:00,
2013-01-15 01:48:00,17.4,-2.8,30.09,WSW,248,2.5,3.1,40,0.00,,CLR,0.00,VWS V14.01,2013-01-15 08:48:00,
2013-01-15 01:55:00,17.4,-2.8,30.09,NNE,22,1.3,2.5,40,0.00,,CLR,0.00,VWS V14.01,2013-01-15 08:55:00,
2013-01-15 01:56:00,17.2,-2.9,30.09,NE,45,2.0,2.2,40,0.00,,CLR,0.00,VWS V14.01,2013-01-15 08:56:00,
2013-01-15 01:58:00,16.9,-3.8,30.09,NE,45,2.2,2.7,39,0.00,,CLR,0.00,VWS V14.01,2013-01-15 08:58:00,
2013-01-15 02:02:00,16.0,-4.6,30.09,ENE,68,3.6,3.6,39,0.00,,CLR,0.00,VWS V14.01,2013-01-15 09:02:00,
2013-01-15 02:06:00,15.4,-5.1,30.09,ENE,68,2.5,3.1,39,0.00,,CLR,0.00,VWS V14.01,2013-01-15 09:06:00,
2013-01-15 02:08:00,15.3,-5.2,30.09,ENE,68,2.9,3.4,39,0.00,,CLR,0.00,VWS V14.01,2013-01-15 09:08:00,
2013-01-15 02:10:00,15.1,-5.4,30.09,NE,45,1.1,2.9,39,0.00,,CLR,0.00,VWS V14.01,2013-01-15 09:10:00,
2013-01-15 02:16:00,14.4,-6.6,30.09,SSW,202,0.0,1.1,38,0.00,,CLR,0.00,VWS V14.01,2013-01-15 09:16:00,
2013-01-15 02:18:00,14.0,-6.4,30.09,WSW,248,1.6,2.2,39,0.00,,CLR,0.00,VWS V14.01,2013-01-15 09:18:00,
2013-01-15 02:22:00,13.6,-6.7,30.09,WSW,248,0.0,0.0,39,0.00,,CLR,0.00,VWS V14.01,2013-01-15 09:22:00,
2013-01-15 02:24:00,13.6,-6.7,30.09,WSW,248,0.0,0.0,39,0.00,,CLR,0.00,VWS V14.01,2013-01-15 09:24:00,
2013-01-15 02:28:00,13.5,-6.9,30.09,WSW,248,0.0,0.0,39,0.00,,CLR,0.00,VWS V14.01,2013-01-15 09:28:00,
2013-01-15 02:30:00,13.3,-7.0,30.09,WSW,248,1.3,1.3,39,0.00,,CLR,0.00,VWS V14.01,2013-01-15 09:30:00,
2013-01-15 02:36:00,12.9,-7.4,30.09,West,270,0.0,2.0,39,0.00,,CLR,0.00,VWS V14.01,2013-01-15 09:36:00,
2013-01-15 02:40:00,12.0,-8.2,30.09,SW,225,2.0,2.0,39,0.00,,CLR,0.00,VWS V14.01,2013-01-15 09:40:00,
2013-01-15 02:42:00,12.0,-8.2,30.09,SSW,202,2.5,2.5,39,0.00,,CLR,0.00,VWS V14.01,2013-01-15 09:42:00,
2013-01-15 02:48:00,11.8,-8.3,30.09,SSW,202,3.8,3.8,39,0.00,,CLR,0.00,VWS V14.01,2013-01-15 09:48:00,
2013-01-15 02:53:00,12.2,-8.0,30.09,SW,225,3.6,4.5,39,0.00,,CLR,0.00,VWS V14.01,2013-01-15 09:53:00,
2013-01-15 02:54:00,12.7,-7.5,30.09,SW,225,4.3,4.3,39,0.00,,CLR,0.00,VWS V14.01,2013-01-15 09:54:00,
2013-01-15 02:58:00,13.3,-7.0,30.09,SW,225,2.5,4.9,39,0.00,,CLR,0.00,VWS V14.01,2013-01-15 09:58:00,
2013-01-15 03:00:00,13.3,-7.0,30.09,SSW,202,1.6,2.5,39,0.00,,CLR,0.00,VWS V14.01,2013-01-15 10:00:00,
2013-01-15 03:04:00,13.3,-7.0,30.09,SW,225,3.8,4.0,39,0.00,,CLR,0.00,VWS V14.01,2013-01-15 10:04:00,
2013-01-15 03:07:00,13.5,-6.9,30.09,WSW,248,3.6,4.3,39,0.00,,CLR,0.00,VWS V14.01,2013-01-15 10:07:00,
2013-01-15 03:08:00,13.3,-7.0,30.09,WSW,248,2.7,3.6,39,0.00,,CLR,0.00,VWS V14.01,2013-01-15 10:08:00,
2013-01-15 03:12:00,13.3,-7.0,30.09,West,270,2.9,3.4,39,0.00,,CLR,0.00,VWS V14.01,2013-01-15 10:12:00,
2013-01-15 03:16:00,12.9,-7.4,30.09,WSW,248,1.6,3.4,39,0.00,,CLR,0.00,VWS V14.01,2013-01-15 10:16:00,
2013-01-15 03:18:00,12.9,-7.4,30.09,West,270,3.6,4.5,39,0.00,,CLR,0.00,VWS V14.01,2013-01-15 10:18:00,
2013-01-15 03:20:00,13.1,-7.2,30.09,WSW,248,3.4,3.6,39,0.00,,CLR,0.00,VWS V14.01,2013-01-15 10:20:00,
2013-01-15 03:22:00,13.3,-7.0,30.09,WSW,248,2.5,3.4,39,0.00,,CLR,0.00,VWS V14.01,2013-01-15 10:22:00,
2013-01-15 03:24:00,13.3,-7.0,30.09,WSW,248,2.7,4.3,39,0.00,,CLR,0.00,VWS V14.01,2013-01-15 10:24:00,
2013-01-15 03:28:00,13.8,-6.6,30.09,WNW,292,2.5,3.8,39,0.00,,CLR,0.00,VWS V14.01,2013-01-15 10:28:00,
2013-01-15 03:30:00,14.2,-2.8,30.09,SW,225,2.7,3.1,46,0.00,,CLR,0.00,VWS V14.01,2013-01-15 10:30:00,
2013-01-15 03:34:00,14.5,-2.5,30.09,WSW,248,3.1,3.8,46,0.00,,CLR,0.00,VWS V14.01,2013-01-15 10:34:00,
2013-01-15 03:36:00,14.7,-2.3,30.09,West,270,4.0,4.0,46,0.00,,CLR,0.00,VWS V14.01,2013-01-15 10:36:00,
2013-01-15 03:39:00,14.9,-2.1,30.09,WSW,248,2.9,4.3,46,0.00,,CLR,0.00,VWS V14.01,2013-01-15 10:39:00,
2013-01-15 03:42:00,15.3,-1.8,30.09,WSW,248,2.7,4.7,46,0.00,,CLR,0.00,VWS V14.01,2013-01-15 10:42:00,
2013-01-15 03:44:00,15.4,-1.6,30.09,West,270,3.1,4.3,46,0.00,,CLR,0.00,VWS V14.01,2013-01-15 10:44:00,
2013-01-15 03:46:00,15.8,-1.3,30.09,West,270,2.9,3.6,46,0.00,,CLR,0.00,VWS V14.01,2013-01-15 10:46:00,
2013-01-15 03:50:00,16.2,-1.4,30.09,West,270,2.7,4.3,45,0.00,,CLR,0.00,VWS V14.01,2013-01-15 10:50:00,
2013-01-15 03:53:00,16.2,-1.4,30.09,WNW,292,2.5,3.4,45,0.00,,CLR,0.00,VWS V14.01,2013-01-15 10:53:00,
2013-01-15 03:56:00,16.5,-1.1,30.12,WNW,292,3.6,4.0,45,0.00,,CLR,0.00,VWS V14.01,2013-01-15 10:56:00,
2013-01-15 03:58:00,16.7,-0.9,30.12,WNW,292,3.6,4.3,45,0.00,,CLR,0.00,VWS V14.01,2013-01-15 10:58:00,
2013-01-15 04:00:00,16.7,-0.9,30.12,WNW,292,3.8,4.3,45,0.00,,CLR,0.00,VWS V14.01,2013-01-15 11:00:00,
2013-01-15 04:02:00,17.1,-0.6,30.12,WNW,292,3.8,5.4,45,0.00,,CLR,0.00,VWS V14.01,2013-01-15 11:02:00,
2013-01-15 04:04:00,17.4,-0.3,30.12,WNW,292,3.8,3.8,45,0.00,,CLR,0.00,VWS V14.01,2013-01-15 11:04:00,
2013-01-15 04:06:00,17.6,-0.1,30.12,WNW,292,2.5,3.8,45,0.00,,CLR,0.00,VWS V14.01,2013-01-15 11:06:00,
2013-01-15 04:10:00,17.4,-0.8,30.12,WNW,292,4.3,4.3,44,0.00,,CLR,0.00,VWS V14.01,2013-01-15 11:10:00,
2013-01-15 04:12:00,17.2,-0.9,30.12,WNW,292,4.3,4.3,44,0.00,,CLR,0.00,VWS V14.01,2013-01-15 11:12:00,
2013-01-15 04:16:00,17.1,-1.1,30.12,WNW,292,3.4,4.3,44,0.00,,CLR,0.00,VWS V14.01,2013-01-15 11:16:00,
2013-01-15 04:18:00,17.1,-1.1,30.12,WNW,292,3.8,4.7,44,0.00,,CLR,0.00,VWS V14.01,2013-01-15 11:18:00,
2013-01-15 04:22:00,17.1,-1.1,30.12,WNW,292,3.6,4.0,44,0.00,,CLR,0.00,VWS V14.01,2013-01-15 11:22:00,
2013-01-15 04:24:00,17.1,-1.1,30.12,NNW,338,3.4,4.3,44,0.00,,CLR,0.00,VWS V14.01,2013-01-15 11:24:00,
2013-01-15 04:28:00,17.4,-0.8,30.12,WNW,292,3.6,4.7,44,0.00,,CLR,0.00,VWS V14.01,2013-01-15 11:28:00,
2013-01-15 04:30:00,17.6,-0.6,30.12,WNW,292,3.8,4.3,44,0.00,,CLR,0.00,VWS V14.01,2013-01-15 11:30:00,
2013-01-15 04:35:00,17.8,-0.4,30.12,WNW,292,3.4,4.3,44,0.00,,CLR,0.00,VWS V14.01,2013-01-15 11:35:00,
2013-01-15 04:36:00,18.1,-0.1,30.12,WNW,292,3.1,4.0,44,0.00,,CLR,0.00,VWS V14.01,2013-01-15 11:36:00,
2013-01-15 04:38:00,18.3,0.1,30.12,NW,315,2.9,3.6,44,0.00,,CLR,0.00,VWS V14.01,2013-01-15 11:38:00,
2013-01-15 04:44:00,17.8,-0.9,30.12,NNW,338,2.5,2.5,43,0.00,,CLR,0.00,VWS V14.01,2013-01-15 11:44:00,
2013-01-15 04:46:00,17.6,-0.6,30.12,North,0,2.9,3.6,44,0.00,,CLR,0.00,VWS V14.01,2013-01-15 11:46:00,
2013-01-15 04:49:00,17.6,-0.6,30.12,North,0,1.6,2.9,44,0.00,,CLR,0.00,VWS V14.01,2013-01-15 11:49:00,
2013-01-15 04:54:00,16.5,-1.6,30.12,NNW,338,2.0,2.5,44,0.00,,CLR,0.00,VWS V14.01,2013-01-15 11:54:00,
2013-01-15 04:56:00,16.0,-2.1,30.12,NNW,338,2.2,2.2,44,0.00,,CLR,0.00,VWS V14.01,2013-01-15 11:56:00,
2013-01-15 05:02:00,16.2,-1.9,30.12,WNW,292,2.0,2.9,44,0.00,,CLR,0.00,VWS V14.01,2013-01-15 12:02:00,
2013-01-15 05:04:00,16.0,-2.1,30.12,WNW,292,1.3,2.0,44,0.00,,CLR,0.00,VWS V14.01,2013-01-15 12:04:00,
2013-01-15 05:08:00,16.0,-2.1,30.12,WNW,292,2.7,2.9,44,0.00,,CLR,0.00,VWS V14.01,2013-01-15 12:08:00,
2013-01-15 05:12:00,16.0,-2.1,30.12,NW,315,2.7,2.9,44,0.00,,CLR,0.00,VWS V14.01,2013-01-15 12:12:00,
2013-01-15 05:14:00,16.2,-1.9,30.12,WNW,292,2.7,3.1,44,0.00,,CLR,0.00,VWS V14.01,2013-01-15 12:14:00,
2013-01-15 05:18:00,16.2,-1.9,30.12,WNW,292,3.1,3.1,44,0.00,,CLR,0.00,VWS V14.01,2013-01-15 12:18:00,
2013-01-15 05:24:00,16.0,-2.1,30.12,WNW,292,2.9,3.8,44,0.00,,CLR,0.00,VWS V14.01,2013-01-15 12:24:00,
2013-01-15 05:28:00,16.0,-2.1,30.12,WNW,292,2.7,3.6,44,0.00,,CLR,0.00,VWS V14.01,2013-01-15 12:28:00,
2013-01-15 05:34:00,15.8,-2.2,30.12,WNW,292,3.6,4.0,44,0.00,,CLR,0.00,VWS V14.01,2013-01-15 12:34:00,
2013-01-15 05:36:00,16.0,-2.1,30.12,WNW,292,3.6,3.8,44,0.00,,CLR,0.00,VWS V14.01,2013-01-15 12:36:00,
2013-01-15 05:42:00,16.2,-1.9,30.12,WNW,292,3.1,4.3,44,0.00,,CLR,0.00,VWS V14.01,2013-01-15 12:42:00,
2013-01-15 05:44:00,16.2,-1.9,30.12,WNW,292,3.8,3.8,44,0.00,,CLR,0.00,VWS V14.01,2013-01-15 12:44:00,
2013-01-15 05:46:00,16.2,-1.9,30.12,WNW,292,2.9,4.0,44,0.00,,CLR,0.00,VWS V14.01,2013-01-15 12:46:00,
2013-01-15 05:52:00,15.8,-2.2,30.12,WNW,292,5.4,5.4,44,0.00,,CLR,0.00,VWS V14.01,2013-01-15 12:52:00,
2013-01-15 05:58:00,16.2,-1.9,30.15,WNW,292,4.3,5.8,44,0.00,,CLR,0.00,VWS V14.01,2013-01-15 12:58:00,
2013-01-15 06:00:00,16.2,-1.9,30.15,WNW,292,3.8,5.8,44,0.00,,CLR,0.00,VWS V14.01,2013-01-15 13:00:00,
2013-01-15 06:04:00,16.2,-1.9,30.15,WNW,292,3.6,4.3,44,0.00,,CLR,0.00,VWS V14.01,2013-01-15 13:04:00,
2013-01-15 06:10:00,16.2,-1.9,30.12,WNW,292,6.3,6.3,44,0.00,,CLR,0.00,VWS V14.01,2013-01-15 13:10:00,
2013-01-15 06:12:00,16.2,-1.9,30.12,WNW,292,5.4,6.3,44,0.00,,CLR,0.00,VWS V14.01,2013-01-15 13:12:00,
2013-01-15 06:15:00,16.0,-2.1,30.12,WSW,248,4.7,5.4,44,0.00,,CLR,0.00,VWS V14.01,2013-01-15 13:15:00,
2013-01-15 06:18:00,15.8,-2.2,30.12,West,270,3.8,3.8,44,0.00,,CLR,0.00,VWS V14.01,2013-01-15 13:18:00,
2013-01-15 06:22:00,15.8,-2.2,30.12,West,270,4.3,6.0,44,0.00,,CLR,0.00,VWS V14.01,2013-01-15 13:22:00,
2013-01-15 06:24:00,16.0,-2.1,30.12,WNW,292,3.8,5.4,44,0.00,,CLR,0.00,VWS V14.01,2013-01-15 13:24:00,
2013-01-15 06:30:00,16.0,-2.1,30.15,WNW,292,3.1,4.5,44,0.00,,CLR,0.00,VWS V14.01,2013-01-15 13:30:00,
2013-01-15 06:32:00,15.8,-2.2,30.15,NW,315,4.0,4.3,44,0.00,,CLR,0.00,VWS V14.01,2013-01-15 13:32:00,
2013-01-15 06:36:00,16.0,-2.1,30.15,WSW,248,2.9,6.0,44,0.00,,CLR,0.00,VWS V14.01,2013-01-15 13:36:00,
2013-01-15 06:38:00,15.8,-2.2,30.15,WNW,292,4.3,4.3,44,0.00,,CLR,0.00,VWS V14.01,2013-01-15 13:38:00,
2013-01-15 06:44:00,15.4,-2.6,30.15,WNW,292,2.9,3.8,44,0.00,,CLR,0.00,VWS V14.01,2013-01-15 13:44:00,
2013-01-15 06:50:00,15.1,-2.9,30.15,WNW,292,5.6,5.6,44,0.00,,CLR,0.00,VWS V14.01,2013-01-15 13:50:00,
2013-01-15 06:54:00,14.9,-3.1,30.15,WNW,292,4.9,4.9,44,0.00,,CLR,0.00,VWS V14.01,2013-01-15 13:54:00,
2013-01-15 06:56:00,14.9,-3.1,30.15,WNW,292,4.9,4.9,44,0.00,,CLR,0.00,VWS V14.01,2013-01-15 13:56:00,
2013-01-15 07:02:00,15.1,-2.4,30.15,West,270,4.3,4.9,45,0.00,,CLR,0.00,VWS V14.01,2013-01-15 14:02:00,
2013-01-15 07:04:00,14.9,-2.6,30.15,West,270,3.6,4.3,45,0.00,,CLR,0.00,VWS V14.01,2013-01-15 14:04:00,
2013-01-15 07:10:00,14.7,-2.8,30.15,West,270,3.4,3.6,45,0.00,,CLR,0.00,VWS V14.01,2013-01-15 14:10:00,
2013-01-15 07:12:00,14.7,-2.8,30.15,WSW,248,3.8,3.8,45,0.00,,CLR,0.00,VWS V14.01,2013-01-15 14:12:00,
2013-01-15 07:14:00,14.9,-2.6,30.15,West,270,5.6,5.6,45,0.00,,CLR,0.00,VWS V14.01,2013-01-15 14:14:00,
2013-01-15 07:18:00,15.1,-2.4,30.15,WNW,292,3.6,6.0,45,0.00,,CLR,0.00,VWS V14.01,2013-01-15 14:18:00,
2013-01-15 07:20:00,14.9,-2.6,30.15,WSW,248,2.7,3.6,45,0.00,,CLR,0.00,VWS V14.01,2013-01-15 14:20:00,
2013-01-15 07:24:00,14.7,-2.8,30.15,WSW,248,2.7,3.1,45,0.00,,CLR,0.00,VWS V14.01,2013-01-15 14:24:00,
2013-01-15 07:27:00,14.9,-2.6,30.15,WSW,248,3.4,3.4,45,0.00,,CLR,0.00,VWS V14.01,2013-01-15 14:27:00,
2013-01-15 07:28:00,14.9,-2.6,30.15,WSW,248,3.4,3.4,45,0.00,,CLR,0.00,VWS V14.01,2013-01-15 14:28:00,
2013-01-15 07:32:00,14.9,-2.6,30.15,WNW,292,3.6,3.8,45,0.00,,CLR,0.00,VWS V14.01,2013-01-15 14:32:00,
2013-01-15 07:34:00,15.4,-2.1,30.15,WNW,292,2.9,3.6,45,0.00,,CLR,0.00,VWS V14.01,2013-01-15 14:34:00,
2013-01-15 07:36:00,15.8,-1.8,30.15,WNW,292,3.6,4.0,45,0.00,,CLR,0.00,VWS V14.01,2013-01-15 14:36:00,
2013-01-15 07:40:00,16.3,-1.7,30.15,WNW,292,4.0,4.0,44,0.00,,CLR,0.00,VWS V14.01,2013-01-15 14:40:00,
2013-01-15 07:42:00,16.7,-1.4,30.15,WNW,292,3.8,4.3,44,0.00,,CLR,0.00,VWS V14.01,2013-01-15 14:42:00,
2013-01-15 07:47:00,16.9,-1.2,30.15,West,270,4.0,4.0,44,0.00,,CLR,0.00,VWS V14.01,2013-01-15 14:47:00,
2013-01-15 07:48:00,17.4,-0.8,30.15,WNW,292,3.6,4.0,44,0.00,,CLR,0.00,VWS V14.01,2013-01-15 14:48:00,
2013-01-15 07:50:00,17.6,-0.6,30.15,WNW,292,4.0,4.0,44,0.00,,CLR,0.00,VWS V14.01,2013-01-15 14:50:00,
2013-01-15 07:54:00,18.3,0.1,30.15,WNW,292,2.5,2.9,44,0.00,,CLR,0.00,VWS V14.01,2013-01-15 14:54:00,
2013-01-15 07:57:00,18.5,0.2,30.18,WNW,292,3.4,3.4,44,0.00,,CLR,0.00,VWS V14.01,2013-01-15 14:57:00,
2013-01-15 07:58:00,19.0,0.7,30.18,WNW,292,2.7,3.4,44,0.00,,CLR,0.00,VWS V14.01,2013-01-15 14:58:00,
2013-01-15 08:01:00,19.6,1.2,30.18,NW,315,2.7,2.7,44,0.00,,CLR,0.00,VWS V14.01,2013-01-15 15:01:00,
2013-01-15 08:04:00,20.3,1.4,30.18,NNW,338,3.8,4.3,43,0.00,,CLR,0.00,VWS V14.01,2013-01-15 15:04:00,
2013-01-15 08:10:00,21.2,2.2,30.18,NW,315,2.7,3.1,43,0.00,,CLR,0.00,VWS V14.01,2013-01-15 15:10:00,
2013-01-15 08:15:00,21.7,2.7,30.18,North,0,2.7,2.7,43,0.00,,CLR,0.00,VWS V14.01,2013-01-15 15:15:00,
2013-01-15 08:16:00,22.3,3.2,30.18,NNW,338,3.1,4.3,43,0.00,,CLR,0.00,VWS V14.01,2013-01-15 15:16:00,
2013-01-15 08:19:00,22.3,3.2,30.18,NNW,338,3.6,3.8,43,0.00,,CLR,0.00,VWS V14.01,2013-01-15 15:19:00,
2013-01-15 08:20:00,22.8,3.7,30.18,NW,315,4.3,4.9,43,0.00,,CLR,0.00,VWS V14.01,2013-01-15 15:20:00,
2013-01-15 08:24:00,23.2,3.5,30.18,WNW,292,4.3,5.6,42,0.00,,CLR,0.00,VWS V14.01,2013-01-15 15:24:00,
2013-01-15 08:27:00,23.2,3.5,30.18,NNW,338,5.4,6.3,42,0.00,,CLR,0.00,VWS V14.01,2013-01-15 15:27:00,
2013-01-15 08:28:00,23.5,3.8,30.18,NNW,338,4.9,6.3,42,0.00,,CLR,0.00,VWS V14.01,2013-01-15 15:28:00,
2013-01-15 08:32:00,23.9,4.2,30.18,NNW,338,4.3,5.4,42,0.00,,CLR,0.00,VWS V14.01,2013-01-15 15:32:00,
2013-01-15 08:35:00,24.1,4.3,30.18,NNW,338,5.4,5.8,42,0.00,,CLR,0.00,VWS V14.01,2013-01-15 15:35:00,
2013-01-15 08:36:00,24.3,4.5,30.18,NNW,338,6.0,6.0,42,0.00,,CLR,0.00,VWS V14.01,2013-01-15 15:36:00,
2013-01-15 08:38:00,24.3,4.5,30.18,NNW,338,5.6,6.5,42,0.00,,CLR,0.00,VWS V14.01,2013-01-15 15:38:00,
2013-01-15 08:40:00,24.3,4.5,30.18,NNW,338,4.9,7.2,42,0.00,,CLR,0.00,VWS V14.01,2013-01-15 15:40:00,
2013-01-15 08:42:00,24.4,4.7,30.18,NNW,338,4.0,4.9,42,0.00,,CLR,0.00,VWS V14.01,2013-01-15 15:42:00,
2013-01-15 08:44:00,25.0,4.6,30.18,NNW,338,2.9,4.0,41,0.00,,CLR,0.00,VWS V14.01,2013-01-15 15:44:00,
2013-01-15 08:46:00,25.3,4.9,30.18,NNW,338,5.6,5.6,41,0.00,,CLR,0.00,VWS V14.01,2013-01-15 15:46:00,
2013-01-15 08:48:00,25.3,4.9,30.18,NW,315,7.4,7.4,41,0.00,,CLR,0.00,VWS V14.01,2013-01-15 15:48:00,
2013-01-15 08:52:00,25.5,5.1,30.18,NNW,338,3.6,4.9,41,0.00,,CLR,0.00,VWS V14.01,2013-01-15 15:52:00,
2013-01-15 08:54:00,25.7,5.3,30.18,NNW,338,2.5,5.4,41,0.00,,CLR,0.00,VWS V14.01,2013-01-15 15:54:00,
2013-01-15 08:56:00,25.9,5.4,30.21,NNW,338,3.1,4.7,41,0.00,,CLR,0.00,VWS V14.01,2013-01-15 15:56:00,
2013-01-15 09:02:00,26.2,4.7,30.21,NNE,22,5.6,6.3,39,0.00,,CLR,0.00,VWS V14.01,2013-01-15 16:02:00,
2013-01-15 09:04:00,26.6,5.0,30.21,NNW,338,3.6,5.6,39,0.00,,CLR,0.00,VWS V14.01,2013-01-15 16:04:00,
2013-01-15 09:08:00,27.0,4.8,30.21,NNW,338,5.4,5.8,38,0.00,,CLR,0.00,VWS V14.01,2013-01-15 16:08:00,
2013-01-15 09:12:00,27.0,4.8,30.21,NW,315,4.7,5.6,38,0.00,,CLR,0.00,VWS V14.01,2013-01-15 16:12:00,
2013-01-15 09:18:00,27.7,4.8,30.21,NNW,338,4.0,4.3,37,0.00,,CLR,0.00,VWS V14.01,2013-01-15 16:18:00,
2013-01-15 09:20:00,27.7,4.8,30.21,NNW,338,6.0,6.0,37,0.00,,CLR,0.00,VWS V14.01,2013-01-15 16:20:00,
2013-01-15 09:26:00,28.4,4.9,30.21,NNW,338,4.0,5.6,36,0.00,,CLR,0.00,VWS V14.01,2013-01-15 16:26:00,
2013-01-15 09:28:00,28.4,4.9,30.21,NNW,338,4.3,5.6,36,0.00,,CLR,0.00,VWS V14.01,2013-01-15 16:28:00,
2013-01-15 09:30:00,28.4,4.2,30.21,NNW,338,4.3,6.0,35,0.00,,CLR,0.00,VWS V14.01,2013-01-15 16:30:00,
2013-01-15 09:32:00,28.6,4.4,30.21,North,0,4.3,4.3,35,0.00,,CLR,0.00,VWS V14.01,2013-01-15 16:32:00,
2013-01-15 09:34:00,28.6,4.4,30.21,NNW,338,4.5,6.0,35,0.00,,CLR,0.00,VWS V14.01,2013-01-15 16:34:00,
2013-01-15 09:36:00,28.6,3.8,30.21,NNW,338,4.5,4.5,34,0.00,,CLR,0.00,VWS V14.01,2013-01-15 16:36:00,
2013-01-15 09:39:00,28.8,4.6,30.21,NNW,338,4.5,4.5,35,0.00,,CLR,0.00,VWS V14.01,2013-01-15 16:39:00,
2013-01-15 09:42:00,29.1,4.3,30.21,ESE,112,5.6,5.6,34,0.00,,CLR,0.00,VWS V14.01,2013-01-15 16:42:00,
2013-01-15 09:44:00,29.1,4.3,30.21,NNW,338,5.6,6.5,34,0.00,,CLR,0.00,VWS V14.01,2013-01-15 16:44:00,
2013-01-15 09:46:00,29.1,3.6,30.21,North,0,5.6,7.8,33,0.00,,CLR,0.00,VWS V14.01,2013-01-15 16:46:00,
2013-01-15 09:50:00,29.5,3.9,30.21,NNW,338,4.9,6.0,33,0.00,,CLR,0.00,VWS V14.01,2013-01-15 16:50:00,
2013-01-15 09:52:00,29.7,4.1,30.21,North,0,5.8,6.5,33,0.00,,CLR,0.00,VWS V14.01,2013-01-15 16:52:00,
2013-01-15 09:54:00,29.5,3.9,30.21,WNW,292,3.1,7.6,33,0.00,,CLR,0.00,VWS V14.01,2013-01-15 16:54:00,
2013-01-15 09:56:00,29.7,4.1,30.21,NNW,338,6.0,6.0,33,0.00,,CLR,0.00,VWS V14.01,2013-01-15 16:56:00,
2013-01-15 10:00:00,30.2,3.9,30.21,NNW,338,3.8,4.9,32,0.00,,CLR,0.00,VWS V14.01,2013-01-15 17:00:00,
2013-01-15 10:02:00,30.2,3.9,30.21,NNE,22,2.5,6.0,32,0.00,,CLR,0.00,VWS V14.01,2013-01-15 17:02:00,
2013-01-15 10:06:00,30.2,3.9,30.21,SE,135,4.0,7.4,32,0.00,,CLR,0.00,VWS V14.01,2013-01-15 17:06:00,
2013-01-15 10:08:00,30.0,3.8,30.21,WNW,292,4.7,4.7,32,0.00,,CLR,0.00,VWS V14.01,2013-01-15 17:08:00,
2013-01-15 10:12:00,30.0,3.1,30.21,NE,45,7.6,7.6,31,0.00,,CLR,0.00,VWS V14.01,2013-01-15 17:12:00,
2013-01-15 10:14:00,30.2,3.2,30.21,North,0,7.2,7.6,31,0.00,,CLR,0.00,VWS V14.01,2013-01-15 17:14:00,
2013-01-15 10:18:00,30.7,3.7,30.21,NNW,338,4.9,6.0,31,0.00,,CLR,0.00,VWS V14.01,2013-01-15 17:18:00,
2013-01-15 10:20:00,30.9,3.8,30.21,NNW,338,6.0,6.0,31,0.00,,CLR,0.00,VWS V14.01,2013-01-15 17:20:00,
2013-01-15 10:22:00,30.7,3.0,30.21,WSW,248,4.0,6.0,30,0.00,,CLR,0.00,VWS V14.01,2013-01-15 17:22:00,
2013-01-15 10:26:00,30.9,3.1,30.21,NNW,338,7.4,8.7,30,0.00,,CLR,0.00,VWS V14.01,2013-01-15 17:26:00,
2013-01-15 10:28:00,30.7,3.0,30.21,NW,315,6.3,7.8,30,0.00,,CLR,0.00,VWS V14.01,2013-01-15 17:28:00,
2013-01-15 10:32:00,30.9,1.7,30.21,NNE,22,3.8,5.6,28,0.00,,CLR,0.00,VWS V14.01,2013-01-15 17:32:00,
2013-01-15 10:34:00,31.1,-0.6,30.21,NNW,338,8.7,8.7,25,0.00,,CLR,0.00,VWS V14.01,2013-01-15 17:34:00,
2013-01-15 10:38:00,31.1,-5.3,30.21,WNW,292,3.8,7.8,20,0.00,,CLR,0.00,VWS V14.01,2013-01-15 17:38:00,
2013-01-15 10:42:00,32.0,-1.6,30.21,East,90,3.1,6.5,23,0.00,,CLR,0.00,VWS V14.01,2013-01-15 17:42:00,
2013-01-15 10:46:00,31.1,-5.3,30.21,NW,315,4.0,8.7,20,0.00,,CLR,0.00,VWS V14.01,2013-01-15 17:46:00,
2013-01-15 10:48:00,31.3,-5.1,30.21,NNW,338,2.7,6.3,20,0.00,,CLR,0.00,VWS V14.01,2013-01-15 17:48:00,
2013-01-15 10:50:00,32.2,-4.4,30.21,NNW,338,5.6,7.4,20,0.00,,CLR,0.00,VWS V14.01,2013-01-15 17:50:00,
2013-01-15 10:52:00,32.2,-4.4,30.21,NNW,338,4.3,7.4,20,0.00,,CLR,0.00,VWS V14.01,2013-01-15 17:52:00,
2013-01-15 10:56:00,32.4,-10.1,30.21,NNW,338,3.6,7.6,15,0.00,,CLR,0.00,VWS V14.01,2013-01-15 17:56:00,
2013-01-15 10:58:00,32.7,-9.8,30.21,NNE,22,5.4,5.4,15,0.00,,CLR,0.00,VWS V14.01,2013-01-15 17:58:00,
2013-01-15 11:00:00,32.5,-10.0,30.21,WNW,292,4.0,6.3,15,0.00,,CLR,0.00,VWS V14.01,2013-01-15 18:00:00,
2013-01-15 11:06:00,31.5,-15.3,30.21,NNW,338,10.1,10.3,12,0.00,,CLR,0.00,VWS V14.01,2013-01-15 18:06:00,
2013-01-15 11:08:00,32.0,-14.9,30.21,NNW,338,6.5,10.1,12,0.00,,CLR,0.00,VWS V14.01,2013-01-15 18:08:00,
2013-01-15 11:10:00,32.2,-14.7,30.21,NNW,338,7.4,7.8,12,0.00,,CLR,0.00,VWS V14.01,2013-01-15 18:10:00,
2013-01-15 11:14:00,32.5,-14.4,30.21,NNW,338,8.5,8.5,12,0.00,,CLR,0.00,VWS V14.01,2013-01-15 18:14:00,
2013-01-15 11:16:00,32.5,-14.4,30.21,NNW,338,5.4,9.0,12,0.00,,CLR,0.00,VWS V14.01,2013-01-15 18:16:00,
2013-01-15 11:20:00,33.1,-14.0,30.21,NW,315,7.8,7.8,12,0.00,,CLR,0.00,VWS V14.01,2013-01-15 18:20:00,
2013-01-15 11:22:00,33.1,-14.0,30.21,NNW,338,7.8,7.8,12,0.00,,CLR,0.00,VWS V14.01,2013-01-15 18:22:00,
2013-01-15 11:26:00,33.1,-14.0,30.21,WNW,292,6.0,8.1,12,0.00,,CLR,0.00,VWS V14.01,2013-01-15 18:26:00,
2013-01-15 11:29:00,33.1,-14.0,30.21,NNW,338,6.3,7.4,12,0.00,,CLR,0.00,VWS V14.01,2013-01-15 18:29:00,
2013-01-15 11:32:00,33.1,-14.0,30.21,NNW,338,5.6,8.5,12,0.00,,CLR,0.00,VWS V14.01,2013-01-15 18:32:00,
2013-01-15 11:36:00,32.9,-14.1,30.21,North,0,6.9,10.3,12,0.00,,CLR,0.00,VWS V14.01,2013-01-15 18:36:00,
2013-01-15 11:40:00,33.3,-13.9,30.18,NNW,338,8.7,8.7,12,0.00,,CLR,0.00,VWS V14.01,2013-01-15 18:40:00,
2013-01-15 11:42:00,33.3,-13.9,30.18,North,0,7.8,8.7,12,0.00,,CLR,0.00,VWS V14.01,2013-01-15 18:42:00,
2013-01-15 11:44:00,33.4,-13.7,30.18,NNW,338,5.8,9.8,12,0.00,,CLR,0.00,VWS V14.01,2013-01-15 18:44:00,
2013-01-15 11:46:00,32.9,-14.1,30.18,NNW,338,9.0,10.5,12,0.00,,CLR,0.00,VWS V14.01,2013-01-15 18:46:00,
2013-01-15 11:52:00,33.3,-13.9,30.18,NNW,338,8.1,8.1,12,0.00,,CLR,0.00,VWS V14.01,2013-01-15 18:52:00,
2013-01-15 11:56:00,34.0,-15.0,30.18,NW,315,5.6,5.6,11,0.00,,CLR,0.00,VWS V14.01,2013-01-15 18:56:00,
2013-01-15 11:58:00,34.0,-15.0,30.18,NNW,338,5.4,5.6,11,0.00,,CLR,0.00,VWS V14.01,2013-01-15 18:58:00,
2013-01-15 12:00:00,33.6,-13.6,30.18,NNW,338,8.5,8.5,12,0.00,,CLR,0.00,VWS V14.01,2013-01-15 19:00:00,
2013-01-15 12:04:00,33.8,-15.1,30.18,NNW,338,6.3,8.5,11,0.00,,CLR,0.00,VWS V14.01,2013-01-15 19:04:00,
2013-01-15 12:06:00,34.3,-14.7,30.18,WNW,292,3.1,6.3,11,0.00,,CLR,0.00,VWS V14.01,2013-01-15 19:06:00,
2013-01-15 12:08:00,34.2,-14.9,30.18,NW,315,5.8,7.4,11,0.00,,CLR,0.00,VWS V14.01,2013-01-15 19:08:00,
2013-01-15 12:10:00,34.0,-15.0,30.18,NNW,338,8.1,12.1,11,0.00,,CLR,0.00,VWS V14.01,2013-01-15 19:10:00,
2013-01-15 12:12:00,34.2,-14.9,30.18,WNW,292,7.4,10.1,11,0.00,,CLR,0.00,VWS V14.01,2013-01-15 19:12:00,
2013-01-15 12:14:00,34.3,-14.7,30.18,NNW,338,7.8,11.0,11,0.00,,CLR,0.00,VWS V14.01,2013-01-15 19:14:00,
2013-01-15 12:18:00,34.3,-14.7,30.18,NNW,338,7.8,8.5,11,0.00,,CLR,0.00,VWS V14.01,2013-01-15 19:18:00,
2013-01-15 12:20:00,34.3,-14.7,30.18,NNW,338,5.4,7.8,11,0.00,,CLR,0.00,VWS V14.01,2013-01-15 19:20:00,
2013-01-15 12:24:00,34.3,-14.7,30.18,NNW,338,7.6,11.2,11,0.00,,CLR,0.00,VWS V14.01,2013-01-15 19:24:00,
2013-01-15 12:28:00,34.3,-14.7,30.18,NW,315,7.8,8.1,11,0.00,,CLR,0.00,VWS V14.01,2013-01-15 19:28:00,
2013-01-15 12:34:00,33.8,-15.1,30.18,WNW,292,4.3,8.5,11,0.00,,CLR,0.00,VWS V14.01,2013-01-15 19:34:00,
2013-01-15 12:36:00,34.7,-14.4,30.18,WNW,292,3.6,7.4,11,0.00,,CLR,0.00,VWS V14.01,2013-01-15 19:36:00,
2013-01-15 12:38:00,34.7,-14.4,30.18,WNW,292,3.8,6.3,11,0.00,,CLR,0.00,VWS V14.01,2013-01-15 19:38:00,
2013-01-15 12:42:00,35.1,-14.2,30.15,SE,135,3.6,7.4,11,0.00,,CLR,0.00,VWS V14.01,2013-01-15 19:42:00,
2013-01-15 12:44:00,35.6,-13.7,30.15,North,0,5.6,7.6,11,0.00,,CLR,0.00,VWS V14.01,2013-01-15 19:44:00,
2013-01-15 12:46:00,36.0,-13.4,30.15,WNW,292,5.8,7.6,11,0.00,,CLR,0.00,VWS V14.01,2013-01-15 19:46:00,
2013-01-15 12:48:00,36.0,-13.4,30.15,NNE,22,4.7,5.8,11,0.00,,CLR,0.00,VWS V14.01,2013-01-15 19:48:00,
2013-01-15 12:50:00,36.3,-13.2,30.15,North,0,7.8,7.8,11,0.00,,CLR,0.00,VWS V14.01,2013-01-15 19:50:00,
2013-01-15 12:56:00,36.5,-13.0,30.15,WNW,292,4.7,7.2,11,0.00,,CLR,0.00,VWS V14.01,2013-01-15 19:56:00,
2013-01-15 12:58:00,36.9,-12.7,30.15,WNW,292,6.5,6.5,11,0.00,,CLR,0.00,VWS V14.01,2013-01-15 19:58:00,
2013-01-15 13:00:00,36.0,-13.4,30.15,WNW,292,6.3,7.8,11,0.00,,CLR,0.00,VWS V14.01,2013-01-15 20:00:00,
2013-01-15 13:02:00,35.8,-13.6,30.15,West,270,7.4,8.1,11,0.00,,CLR,0.00,VWS V14.01,2013-01-15 20:02:00,
2013-01-15 13:04:00,35.8,-13.6,30.15,NNW,338,6.5,7.8,11,0.00,,CLR,0.00,VWS V14.01,2013-01-15 20:04:00,
2013-01-15 13:06:00,35.4,-13.9,30.15,SSW,202,4.9,6.5,11,0.00,,CLR,0.00,VWS V14.01,2013-01-15 20:06:00,
2013-01-15 13:08:00,36.1,-13.3,30.15,NNW,338,7.4,8.5,11,0.00,,CLR,0.00,VWS V14.01,2013-01-15 20:08:00,
2013-01-15 13:18:00,37.9,-13.8,30.15,NNW,338,6.7,6.7,10,0.00,,CLR,0.00,VWS V14.01,2013-01-15 20:18:00,
2013-01-15 13:22:00,36.9,-12.7,30.15,WNW,292,5.8,8.7,11,0.00,,CLR,0.00,VWS V14.01,2013-01-15 20:22:00,
2013-01-15 13:24:00,36.7,-12.9,30.15,NW,315,5.4,8.7,11,0.00,,CLR,0.00,VWS V14.01,2013-01-15 20:24:00,
2013-01-15 13:27:00,36.7,-12.9,30.15,NNW,338,8.5,8.5,11,0.00,,CLR,0.00,VWS V14.01,2013-01-15 20:27:00,
2013-01-15 13:30:00,36.9,-12.7,30.15,North,0,2.9,6.7,11,0.00,,CLR,0.00,VWS V14.01,2013-01-15 20:30:00,
2013-01-15 13:32:00,37.0,-12.6,30.15,NNW,338,2.7,6.0,11,0.00,,CLR,0.00,VWS V14.01,2013-01-15 20:32:00,
2013-01-15 13:34:00,37.6,-14.1,30.15,West,270,6.5,6.5,10,0.00,,CLR,0.00,VWS V14.01,2013-01-15 20:34:00,
2013-01-15 13:38:00,36.9,-12.7,30.15,NNW,338,4.9,10.5,11,0.00,,CLR,0.00,VWS V14.01,2013-01-15 20:38:00,
2013-01-15 13:40:00,36.9,-12.7,30.15,WNW,292,6.5,6.5,11,0.00,,CLR,0.00,VWS V14.01,2013-01-15 20:40:00,
2013-01-15 13:44:00,36.9,-12.7,30.15,WNW,292,6.5,6.5,11,0.00,,CLR,0.00,VWS V14.01,2013-01-15 20:44:00,
2013-01-15 13:46:00,37.0,-12.6,30.15,NNW,338,4.3,8.7,11,0.00,,CLR,0.00,VWS V14.01,2013-01-15 20:46:00,
2013-01-15 13:48:00,37.0,-12.6,30.15,NNE,22,4.3,6.0,11,0.00,,CLR,0.00,VWS V14.01,2013-01-15 20:48:00,
2013-01-15 13:51:00,37.0,-12.6,30.15,NW,315,6.9,6.9,11,0.00,,CLR,0.00,VWS V14.01,2013-01-15 20:51:00,
2013-01-15 13:52:00,37.0,-12.6,30.15,NNE,22,5.6,6.9,11,0.00,,CLR,0.00,VWS V14.01,2013-01-15 20:52:00,
2013-01-15 13:54:00,37.9,-13.8,30.15,NNW,338,6.5,8.1,10,0.00,,CLR,0.00,VWS V14.01,2013-01-15 20:54:00,
2013-01-15 13:57:00,37.9,-13.8,30.15,NW,315,6.5,6.5,10,0.00,,CLR,0.00,VWS V14.01,2013-01-15 20:57:00,
2013-01-15 13:59:00,37.9,-13.8,30.15,NNW,338,4.9,6.5,10,0.00,,CLR,0.00,VWS V14.01,2013-01-15 20:59:00,
2013-01-15 14:00:00,38.3,-13.5,30.15,NNW,338,3.8,7.6,10,0.00,,CLR,0.00,VWS V14.01,2013-01-15 21:00:00,
2013-01-15 14:02:00,38.3,-13.5,30.15,North,0,4.9,7.2,10,0.00,,CLR,0.00,VWS V14.01,2013-01-15 21:02:00,
2013-01-15 14:06:00,38.3,-13.5,30.15,NNW,338,6.3,10.5,10,0.00,,CLR,0.00,VWS V14.01,2013-01-15 21:06:00,
2013-01-15 14:10:00,38.3,-13.5,30.15,NNW,338,5.4,10.3,10,0.00,,CLR,0.00,VWS V14.01,2013-01-15 21:10:00,
2013-01-15 14:12:00,38.3,-13.5,30.15,NNW,338,6.5,6.5,10,0.00,,CLR,0.00,VWS V14.01,2013-01-15 21:12:00,
2013-01-15 14:16:00,39.2,-12.8,30.15,NW,315,3.8,5.4,10,0.00,,CLR,0.00,VWS V14.01,2013-01-15 21:16:00,
2013-01-15 14:19:00,39.2,-12.8,30.15,NW,315,6.0,6.0,10,0.00,,CLR,0.00,VWS V14.01,2013-01-15 21:19:00,
2013-01-15 14:20:00,38.3,-13.5,30.15,NW,315,6.5,6.5,10,0.00,,CLR,0.00,VWS V14.01,2013-01-15 21:20:00,
2013-01-15 14:24:00,38.3,-13.5,30.15,WNW,292,7.6,7.6,10,0.00,,CLR,0.00,VWS V14.01,2013-01-15 21:24:00,
2013-01-15 14:26:00,38.8,-13.1,30.15,West,270,6.0,9.6,10,0.00,,CLR,0.00,VWS V14.01,2013-01-15 21:26:00,
2013-01-15 14:32:00,38.5,-13.4,30.15,WNW,292,8.1,9.6,10,0.00,,CLR,0.00,VWS V14.01,2013-01-15 21:32:00,
2013-01-15 14:36:00,38.5,-13.4,30.15,WNW,292,5.4,9.8,10,0.00,,CLR,0.00,VWS V14.01,2013-01-15 21:36:00,
2013-01-15 14:40:00,38.5,-13.4,30.15,NW,315,8.7,9.8,10,0.00,,CLR,0.00,VWS V14.01,2013-01-15 21:40:00,
2013-01-15 14:42:00,38.7,-13.2,30.15,North,0,5.8,8.7,10,0.00,,CLR,0.00,VWS V14.01,2013-01-15 21:42:00,
2013-01-15 14:44:00,39.0,-12.9,30.15,North,0,3.8,8.5,10,0.00,,CLR,0.00,VWS V14.01,2013-01-15 21:44:00,
2013-01-15 14:46:00,39.4,-12.7,30.15,NNW,338,5.4,6.0,10,0.00,,CLR,0.00,VWS V14.01,2013-01-15 21:46:00,
2013-01-15 14:50:00,39.4,-12.7,30.15,WNW,292,7.6,9.2,10,0.00,,CLR,0.00,VWS V14.01,2013-01-15 21:50:00,
2013-01-15 14:52:00,39.0,-12.9,30.15,NNW,338,6.5,8.1,10,0.00,,CLR,0.00,VWS V14.01,2013-01-15 21:52:00,
2013-01-15 14:56:00,39.4,-12.7,30.15,WNW,292,3.6,7.8,10,0.00,,CLR,0.00,VWS V14.01,2013-01-15 21:56:00,
2013-01-15 15:02:00,39.4,-12.7,30.15,NW,315,5.8,8.5,10,0.00,,CLR,0.00,VWS V14.01,2013-01-15 22:02:00,
2013-01-15 15:04:00,39.4,-12.7,30.15,NNW,338,5.4,9.8,10,0.00,,CLR,0.00,VWS V14.01,2013-01-15 22:04:00,
2013-01-15 15:08:00,39.4,-12.7,30.15,WNW,292,7.6,8.5,10,0.00,,CLR,0.00,VWS V14.01,2013-01-15 22:08:00,
2013-01-15 15:10:00,39.2,-12.8,30.15,WNW,292,6.3,7.6,10,0.00,,CLR,0.00,VWS V14.01,2013-01-15 22:10:00,
2013-01-15 15:12:00,39.2,-12.8,30.15,NW,315,7.6,12.1,10,0.00,,CLR,0.00,VWS V14.01,2013-01-15 22:12:00,
2013-01-15 15:16:00,38.8,-13.1,30.15,NW,315,6.0,10.1,10,0.00,,CLR,0.00,VWS V14.01,2013-01-15 22:16:00,
2013-01-15 15:22:00,39.0,-12.9,30.15,NNW,338,5.8,8.1,10,0.00,,CLR,0.00,VWS V14.01,2013-01-15 22:22:00,
2013-01-15 15:24:00,39.6,-12.5,30.15,NW,315,6.0,6.0,10,0.00,,CLR,0.00,VWS V14.01,2013-01-15 22:24:00,
2013-01-15 15:26:00,39.2,-12.8,30.18,WNW,292,12.1,12.1,10,0.00,,CLR,0.00,VWS V14.01,2013-01-15 22:26:00,
2013-01-15 15:28:00,39.0,-12.9,30.18,West,270,6.3,12.1,10,0.00,,CLR,0.00,VWS V14.01,2013-01-15 22:28:00,
2013-01-15 15:30:00,39.9,-12.2,30.18,NNW,338,5.6,6.3,10,0.00,,CLR,0.00,VWS V14.01,2013-01-15 22:30:00,
2013-01-15 15:34:00,39.4,-12.7,30.18,NNW,338,6.0,13.4,10,0.00,,CLR,0.00,VWS V14.01,2013-01-15 22:34:00,
2013-01-15 15:36:00,39.4,-12.7,30.18,NNW,338,4.3,6.0,10,0.00,,CLR,0.00,VWS V14.01,2013-01-15 22:36:00,
2013-01-15 15:38:00,39.2,-12.8,30.18,WNW,292,8.5,8.5,10,0.00,,CLR,0.00,VWS V14.01,2013-01-15 22:38:00,
2013-01-15 15:44:00,38.8,-13.1,30.15,NNW,338,6.0,7.8,10,0.00,,CLR,0.00,VWS V14.01,2013-01-15 22:44:00,
2013-01-15 15:46:00,39.2,-12.8,30.15,NNW,338,6.0,6.0,10,0.00,,CLR,0.00,VWS V14.01,2013-01-15 22:46:00,
2013-01-15 15:48:00,39.2,-12.8,30.15,NW,315,5.4,7.6,10,0.00,,CLR,0.00,VWS V14.01,2013-01-15 22:48:00,
2013-01-15 15:50:00,39.4,-12.7,30.15,NNW,338,6.5,9.8,10,0.00,,CLR,0.00,VWS V14.01,2013-01-15 22:50:00,
2013-01-15 15:54:00,39.4,-12.7,30.15,North,0,8.7,8.7,10,0.00,,CLR,0.00,VWS V14.01,2013-01-15 22:54:00,
2013-01-15 15:56:00,39.4,-12.7,30.18,NNW,338,5.8,8.7,10,0.00,,CLR,0.00,VWS V14.01,2013-01-15 22:56:00,
2013-01-15 16:00:00,39.4,-12.7,30.18,NW,315,6.5,8.5,10,0.00,,CLR,0.00,VWS V14.01,2013-01-15 23:00:00,
2013-01-15 16:02:00,39.4,-12.7,30.18,NNW,338,6.5,6.5,10,0.00,,CLR,0.00,VWS V14.01,2013-01-15 23:02:00,
2013-01-15 16:08:00,39.4,-12.7,30.18,NNW,338,6.5,10.7,10,0.00,,CLR,0.00,VWS V14.01,2013-01-15 23:08:00,
2013-01-15 16:14:00,39.2,-12.8,30.18,NW,315,5.8,7.8,10,0.00,,CLR,0.00,VWS V14.01,2013-01-15 23:14:00,
2013-01-15 16:16:00,39.0,-12.9,30.18,NW,315,5.8,6.5,10,0.00,,CLR,0.00,VWS V14.01,2013-01-15 23:16:00,
2013-01-15 16:18:00,39.0,-12.9,30.18,WNW,292,4.0,5.8,10,0.00,,CLR,0.00,VWS V14.01,2013-01-15 23:18:00,
2013-01-15 16:22:00,39.2,-12.8,30.18,NNW,338,4.9,6.3,10,0.00,,CLR,0.00,VWS V14.01,2013-01-15 23:22:00,
2013-01-15 16:26:00,39.6,-12.5,30.18,WNW,292,4.3,5.4,10,0.00,,CLR,0.00,VWS V14.01,2013-01-15 23:26:00,
2013-01-15 16:28:00,39.7,-12.4,30.18,WNW,292,4.3,4.3,10,0.00,,CLR,0.00,VWS V14.01,2013-01-15 23:28:00,
2013-01-15 16:30:00,39.4,-12.7,30.18,WNW,292,4.3,4.3,10,0.00,,CLR,0.00,VWS V14.01,2013-01-15 23:30:00,
2013-01-15 16:34:00,39.2,-12.8,30.18,NNW,338,5.6,6.0,10,0.00,,CLR,0.00,VWS V14.01,2013-01-15 23:34:00,
2013-01-15 16:38:00,39.2,-12.8,30.18,WNW,292,6.3,7.2,10,0.00,,CLR,0.00,VWS V14.01,2013-01-15 23:38:00,
2013-01-15 16:40:00,38.8,-13.1,30.21,WNW,292,8.5,8.5,10,0.00,,CLR,0.00,VWS V14.01,2013-01-15 23:40:00,
2013-01-15 16:42:00,38.8,-13.1,30.21,WNW,292,8.5,8.5,10,0.00,,CLR,0.00,VWS V14.01,2013-01-15 23:42:00,
2013-01-15 16:44:00,38.8,-13.1,30.21,NW,315,4.9,8.5,10,0.00,,CLR,0.00,VWS V14.01,2013-01-15 23:44:00,
2013-01-15 16:46:00,38.5,-13.4,30.21,WNW,292,4.9,4.9,10,0.00,,CLR,0.00,VWS V14.01,2013-01-15 23:46:00,
2013-01-15 16:50:00,38.5,-13.4,30.21,NNW,338,6.5,6.5,10,0.00,,CLR,0.00,VWS V14.01,2013-01-15 23:50:00,
2013-01-15 16:52:00,38.7,-13.2,30.21,North,0,3.6,6.5,10,0.00,,CLR,0.00,VWS V14.01,2013-01-15 23:52:00,
2013-01-15 16:56:00,37.4,-14.2,30.21,NNW,338,5.4,6.0,10,0.00,,CLR,0.00,VWS V14.01,2013-01-15 23:56:00,
2013-01-15 17:02:00,36.3,-13.2,30.21,WNW,292,3.8,6.5,11,0.00,,CLR,0.00,VWS V14.01,2013-01-16 00:02:00,
2013-01-15 17:08:00,35.8,-13.6,30.21,WNW,292,3.8,3.8,11,0.00,,CLR,0.00,VWS V14.01,2013-01-16 00:08:00,
2013-01-15 17:11:00,35.6,-13.7,30.21,WNW,292,3.8,3.8,11,0.00,,CLR,0.00,VWS V14.01,2013-01-16 00:11:00,
2013-01-15 17:12:00,35.6,-13.7,30.21,WNW,292,3.8,3.8,11,0.00,,CLR,0.00,VWS V14.01,2013-01-16 00:12:00,
2013-01-15 17:14:00,35.4,-13.9,30.21,WNW,292,5.4,5.4,11,0.00,,CLR,0.00,VWS V14.01,2013-01-16 00:14:00,
2013-01-15 17:18:00,34.9,-14.3,30.21,NNW,338,3.1,5.4,11,0.00,,CLR,0.00,VWS V14.01,2013-01-16 00:18:00,
2013-01-15 17:20:00,34.9,-14.3,30.21,NNW,338,3.1,3.1,11,0.00,,CLR,0.00,VWS V14.01,2013-01-16 00:20:00,
2013-01-15 17:26:00,34.5,-14.6,30.21,NNW,338,3.1,3.1,11,0.00,,CLR,0.00,VWS V14.01,2013-01-16 00:26:00,
2013-01-15 17:30:00,34.2,-14.9,30.21,WNW,292,2.0,3.6,11,0.00,,CLR,0.00,VWS V14.01,2013-01-16 00:30:00,
2013-01-15 17:32:00,34.0,-15.0,30.21,WSW,248,2.5,2.5,11,0.00,,CLR,0.00,VWS V14.01,2013-01-16 00:32:00,
2013-01-15 17:36:00,33.1,-14.0,30.21,WSW,248,2.5,2.5,12,0.00,,CLR,0.00,VWS V14.01,2013-01-16 00:36:00,
2013-01-15 17:38:00,32.7,-14.3,30.21,WSW,248,2.5,2.5,12,0.00,,CLR,0.00,VWS V14.01,2013-01-16 00:38:00,
2013-01-15 17:40:00,32.5,-14.4,30.24,WSW,248,2.5,2.5,12,0.00,,CLR,0.00,VWS V14.01,2013-01-16 00:40:00,
2013-01-15 17:42:00,32.2,-14.7,30.24,WSW,248,2.5,2.5,12,0.00,,CLR,0.00,VWS V14.01,2013-01-16 00:42:00,
2013-01-15 17:46:00,31.5,-15.3,30.24,WNW,292,3.1,3.1,12,0.00,,CLR,0.00,VWS V14.01,2013-01-16 00:46:00,
2013-01-15 17:48:00,31.1,-15.6,30.24,West,270,2.9,3.8,12,0.00,,CLR,0.00,VWS V14.01,2013-01-16 00:48:00,
2013-01-15 17:58:00,30.4,-16.1,30.21,WNW,292,3.6,3.6,12,0.00,,CLR,0.00,VWS V14.01,2013-01-16 00:58:00,
2013-01-15 18:03:00,30.2,-16.3,30.21,WSW,248,3.1,3.6,12,0.00,,FEW300,0.00,VWS V14.01,2013-01-16 01:03:00,
2013-01-15 18:04:00,29.8,-16.6,30.21,WNW,292,3.1,3.1,12,0.00,,FEW300,0.00,VWS V14.01,2013-01-16 01:04:00,
2013-01-15 18:07:00,29.8,-16.6,30.21,WNW,292,2.7,3.1,12,0.00,,FEW300,0.00,VWS V14.01,2013-01-16 01:07:00,
2013-01-15 18:10:00,29.3,-17.0,30.21,WSW,248,2.9,2.9,12,0.00,,FEW300,0.00,VWS V14.01,2013-01-16 01:10:00,
2013-01-15 18:14:00,28.8,-17.4,30.21,West,270,2.5,2.5,12,0.00,,FEW300,0.00,VWS V14.01,2013-01-16 01:14:00,
2013-01-15 18:20:00,28.2,-17.9,30.21,WSW,248,3.1,3.1,12,0.00,,FEW300,0.00,VWS V14.01,2013-01-16 01:20:00,
2013-01-15 18:22:00,28.0,-18.0,30.21,WSW,248,3.1,3.1,12,0.00,,FEW300,0.00,VWS V14.01,2013-01-16 01:22:00,
2013-01-15 18:24:00,27.9,-18.2,30.21,WSW,248,3.1,3.1,12,0.00,,FEW300,0.00,VWS V14.01,2013-01-16 01:24:00,
2013-01-15 18:31:00,27.9,-18.2,30.18,WSW,248,3.1,3.1,12,0.00,,FEW300,0.00,VWS V14.01,2013-01-16 01:31:00,
2013-01-15 18:32:00,27.7,-18.3,30.18,WSW,248,3.1,3.1,12,0.00,,FEW300,0.00,VWS V14.01,2013-01-16 01:32:00,
2013-01-15 18:38:00,27.5,-18.4,30.18,WSW,248,3.1,3.1,12,0.00,,FEW300,0.00,VWS V14.01,2013-01-16 01:38:00,
2013-01-15 18:42:00,27.1,-18.7,30.21,West,270,2.5,2.5,12,0.00,,FEW300,0.00,VWS V14.01,2013-01-16 01:42:00,
2013-01-15 18:44:00,27.0,-18.9,30.21,WSW,248,4.9,4.9,12,0.00,,FEW300,0.00,VWS V14.01,2013-01-16 01:44:00,
2013-01-15 18:47:00,27.0,-18.9,30.21,WSW,248,3.8,5.6,12,0.00,,FEW300,0.00,VWS V14.01,2013-01-16 01:47:00,
2013-01-15 18:48:00,27.0,-18.9,30.21,West,270,3.4,3.8,12,0.00,,FEW300,0.00,VWS V14.01,2013-01-16 01:48:00,
2013-01-15 18:52:00,27.5,-18.4,30.21,West,270,3.4,3.8,12,0.00,,FEW300,0.00,VWS V14.01,2013-01-16 01:52:00,
2013-01-15 18:54:00,27.7,-18.3,30.21,WNW,292,3.1,3.4,12,0.00,,FEW300,0.00,VWS V14.01,2013-01-16 01:54:00,
2013-01-15 18:56:00,27.7,-18.3,30.21,WSW,248,3.4,3.4,12,0.00,,FEW300,0.00,VWS V14.01,2013-01-16 01:56:00,
2013-01-15 19:00:00,27.5,-18.4,30.21,WSW,248,2.7,2.9,12,0.00,,FEW300,0.00,VWS V14.01,2013-01-16 02:00:00,
2013-01-15 19:02:00,27.5,-18.4,30.21,WSW,248,2.7,2.7,12,0.00,,CLR,0.00,VWS V14.01,2013-01-16 02:02:00,
2013-01-15 19:06:00,27.3,-18.6,30.21,WSW,248,3.1,3.4,12,0.00,,CLR,0.00,VWS V14.01,2013-01-16 02:06:00,
2013-01-15 19:08:00,27.3,-18.6,30.21,WSW,248,2.7,3.1,12,0.00,,CLR,0.00,VWS V14.01,2013-01-16 02:08:00,
2013-01-15 19:10:00,27.0,-18.9,30.21,WSW,248,2.7,2.7,12,0.00,,CLR,0.00,VWS V14.01,2013-01-16 02:10:00,
2013-01-15 19:12:00,26.6,-17.6,30.21,WSW,248,2.9,3.4,13,0.00,,CLR,0.00,VWS V14.01,2013-01-16 02:12:00,
2013-01-15 19:18:00,26.2,-17.9,30.21,WSW,248,2.9,3.1,13,0.00,,CLR,0.00,VWS V14.01,2013-01-16 02:18:00,
2013-01-15 19:20:00,26.1,-18.0,30.21,WSW,248,2.9,2.9,13,0.00,,CLR,0.00,VWS V14.01,2013-01-16 02:20:00,
2013-01-15 19:22:00,26.1,-18.0,30.21,WSW,248,2.5,2.9,13,0.00,,CLR,0.00,VWS V14.01,2013-01-16 02:22:00,
2013-01-15 19:24:00,25.9,-18.2,30.21,WSW,248,3.4,3.4,13,0.00,,CLR,0.00,VWS V14.01,2013-01-16 02:24:00,
2013-01-15 19:29:00,25.5,-18.5,30.21,WSW,248,2.7,2.7,13,0.00,,CLR,0.00,VWS V14.01,2013-01-16 02:29:00,
2013-01-15 19:30:00,25.3,-18.6,30.21,WSW,248,3.1,3.4,13,0.00,,CLR,0.00,VWS V14.01,2013-01-16 02:30:00,
2013-01-15 19:32:00,25.3,-18.6,30.21,WSW,248,3.1,3.1,13,0.00,,CLR,0.00,VWS V14.01,2013-01-16 02:32:00,
2013-01-15 19:34:00,25.3,-18.6,30.21,WSW,248,3.1,3.1,13,0.00,,CLR,0.00,VWS V14.01,2013-01-16 02:34:00,
2013-01-15 19:36:00,25.3,-18.6,30.21,WSW,248,3.1,3.1,13,0.00,,CLR,0.00,VWS V14.01,2013-01-16 02:36:00,
2013-01-15 19:40:00,25.2,-18.8,30.21,WSW,248,2.5,2.9,13,0.00,,CLR,0.00,VWS V14.01,2013-01-16 02:40:00,
2013-01-15 19:43:00,25.2,-18.8,30.21,WSW,248,2.5,2.5,13,0.00,,CLR,0.00,VWS V14.01,2013-01-16 02:43:00,
2013-01-15 19:44:00,25.0,-18.9,30.21,WSW,248,2.7,3.4,13,0.00,,CLR,0.00,VWS V14.01,2013-01-16 02:44:00,
2013-01-15 19:46:00,24.8,-19.1,30.21,WSW,248,2.7,2.9,13,0.00,,CLR,0.00,VWS V14.01,2013-01-16 02:46:00,
2013-01-15 19:52:00,24.1,-19.6,30.21,WSW,248,2.7,3.8,13,0.00,,CLR,0.00,VWS V14.01,2013-01-16 02:52:00,
2013-01-15 19:58:00,23.5,-20.1,30.21,WSW,248,2.9,3.1,13,0.00,,CLR,0.00,VWS V14.01,2013-01-16 02:58:00,
2013-01-15 20:00:00,23.5,-20.1,30.21,WSW,248,3.4,3.4,13,0.00,,CLR,0.00,VWS V14.01,2013-01-16 03:00:00,
2013-01-15 20:06:00,23.5,-20.1,30.21,WSW,248,2.5,2.5,13,0.00,,CLR,0.00,VWS V14.01,2013-01-16 03:06:00,
2013-01-15 20:08:00,23.5,-20.1,30.21,WSW,248,2.7,2.7,13,0.00,,CLR,0.00,VWS V14.01,2013-01-16 03:08:00,
2013-01-15 20:12:00,23.5,-20.1,30.24,WSW,248,3.8,3.8,13,0.00,,CLR,0.00,VWS V14.01,2013-01-16 03:12:00,
2013-01-15 20:14:00,23.5,-20.1,30.24,WSW,248,3.8,3.8,13,0.00,,CLR,0.00,VWS V14.01,2013-01-16 03:14:00,
2013-01-15 20:20:00,23.9,-19.8,30.24,WSW,248,2.9,2.9,13,0.00,,CLR,0.00,VWS V14.01,2013-01-16 03:20:00,
2013-01-15 20:23:00,23.9,-19.8,30.24,WSW,248,3.6,3.6,13,0.00,,CLR,0.00,VWS V14.01,2013-01-16 03:23:00,
2013-01-15 20:26:00,24.4,-19.4,30.24,West,270,2.9,3.8,13,0.00,,CLR,0.00,VWS V14.01,2013-01-16 03:26:00,
2013-01-15 20:30:00,24.4,-19.4,30.24,WSW,248,2.5,2.9,13,0.00,,CLR,0.00,VWS V14.01,2013-01-16 03:30:00,
2013-01-15 20:32:00,24.4,-19.4,30.24,WSW,248,2.5,2.5,13,0.00,,CLR,0.00,VWS V14.01,2013-01-16 03:32:00,
2013-01-15 20:36:00,24.1,-19.6,30.24,WSW,248,2.5,2.5,13,0.00,,CLR,0.00,VWS V14.01,2013-01-16 03:36:00,
2013-01-15 20:40:00,23.9,-19.8,30.24,WSW,248,3.4,3.4,13,0.00,,CLR,0.00,VWS V14.01,2013-01-16 03:40:00,
2013-01-15 20:42:00,23.9,-19.8,30.24,WSW,248,3.6,3.6,13,0.00,,CLR,0.00,VWS V14.01,2013-01-16 03:42:00,
2013-01-15 20:48:00,24.4,-19.4,30.24,WSW,248,3.6,3.6,13,0.00,,CLR,0.00,VWS V14.01,2013-01-16 03:48:00,
2013-01-15 20:50:00,24.8,-19.1,30.24,WSW,248,3.6,3.6,13,0.00,,CLR,0.00,VWS V14.01,2013-01-16 03:50:00,
2013-01-15 20:55:00,25.2,-18.8,30.24,WSW,248,3.6,3.6,13,0.00,,CLR,0.00,VWS V14.01,2013-01-16 03:55:00,
2013-01-15 20:56:00,24.8,-19.1,30.24,WSW,248,2.9,3.6,13,0.00,,CLR,0.00,VWS V14.01,2013-01-16 03:56:00,
2013-01-15 21:00:00,24.6,-19.2,30.24,WSW,248,3.4,4.9,13,0.00,,CLR,0.00,VWS V14.01,2013-01-16 04:00:00,
2013-01-15 21:03:00,24.6,-19.2,30.24,WSW,248,3.4,3.4,13,0.00,,CLR,0.00,VWS V14.01,2013-01-16 04:03:00,
2013-01-15 21:04:00,24.8,-19.1,30.24,WSW,248,3.1,4.0,13,0.00,,CLR,0.00,VWS V14.01,2013-01-16 04:04:00,
2013-01-15 21:10:00,25.2,-18.8,30.24,WSW,248,2.5,2.5,13,0.00,,CLR,0.00,VWS V14.01,2013-01-16 04:10:00,
2013-01-15 21:13:00,25.2,-18.8,30.24,WSW,248,2.5,4.0,13,0.00,,CLR,0.00,VWS V14.01,2013-01-16 04:13:00,
2013-01-15 21:16:00,25.0,-18.9,30.24,WSW,248,4.3,4.3,13,0.00,,CLR,0.00,VWS V14.01,2013-01-16 04:16:00,
2013-01-15 21:19:00,24.8,-19.1,30.24,WSW,248,3.6,4.3,13,0.00,,CLR,0.00,VWS V14.01,2013-01-16 04:19:00,
2013-01-15 21:20:00,25.0,-18.9,30.24,West,270,5.4,5.8,13,0.00,,CLR,0.00,VWS V14.01,2013-01-16 04:20:00,
2013-01-15 21:22:00,25.2,-18.8,30.24,WSW,248,4.0,5.4,13,0.00,,CLR,0.00,VWS V14.01,2013-01-16 04:22:00,
2013-01-15 21:26:00,25.3,-18.6,30.24,WSW,248,4.0,4.0,13,0.00,,CLR,0.00,VWS V14.01,2013-01-16 04:26:00,
2013-01-15 21:30:00,25.5,-18.5,30.24,West,270,2.7,4.0,13,0.00,,CLR,0.00,VWS V14.01,2013-01-16 04:30:00,
2013-01-15 21:34:00,25.7,-18.3,30.24,WSW,248,3.4,3.4,13,0.00,,CLR,0.00,VWS V14.01,2013-01-16 04:34:00,
2013-01-15 21:36:00,25.7,-18.3,30.24,WSW,248,3.6,3.6,13,0.00,,CLR,0.00,VWS V14.01,2013-01-16 04:36:00,
2013-01-15 21:41:00,25.7,-18.3,30.24,WSW,248,3.6,3.6,13,0.00,,CLR,0.00,VWS V14.01,2013-01-16 04:41:00,
2013-01-15 21:44:00,25.3,-18.6,30.24,WSW,248,3.6,3.6,13,0.00,,CLR,0.00,VWS V14.01,2013-01-16 04:44:00,
2013-01-15 21:46:00,25.2,-18.8,30.24,WSW,248,4.7,4.7,13,0.00,,CLR,0.00,VWS V14.01,2013-01-16 04:46:00,
2013-01-15 21:49:00,25.2,-18.8,30.24,WSW,248,4.3,4.7,13,0.00,,CLR,0.00,VWS V14.01,2013-01-16 04:49:00,
2013-01-15 21:50:00,25.0,-18.9,30.24,WSW,248,2.5,4.3,13,0.00,,CLR,0.00,VWS V14.01,2013-01-16 04:50:00,
2013-01-15 21:52:00,25.0,-18.9,30.24,WSW,248,3.1,3.1,13,0.00,,CLR,0.00,VWS V14.01,2013-01-16 04:52:00,
2013-01-15 21:58:00,24.8,-19.1,30.24,WSW,248,3.8,4.3,13,0.00,,CLR,0.00,VWS V14.01,2013-01-16 04:58:00,
2013-01-15 22:04:00,23.7,-19.9,30.24,WSW,248,3.8,3.8,13,0.00,,CLR,0.00,VWS V14.01,2013-01-16 05:04:00,
2013-01-15 22:06:00,23.7,-19.9,30.24,WSW,248,3.8,3.8,13,0.00,,CLR,0.00,VWS V14.01,2013-01-16 05:06:00,
2013-01-15 22:08:00,23.5,-20.1,30.24,SSW,202,2.0,3.8,13,0.00,,CLR,0.00,VWS V14.01,2013-01-16 05:08:00,
2013-01-15 22:10:00,23.4,-20.2,30.24,SSW,202,2.0,2.0,13,0.00,,CLR,0.00,VWS V14.01,2013-01-16 05:10:00,
2013-01-15 22:14:00,23.4,-20.2,30.24,SSW,202,2.0,2.0,13,0.00,,CLR,0.00,VWS V14.01,2013-01-16 05:14:00,
2013-01-15 22:16:00,23.4,-20.2,30.24,SSW,202,2.0,2.0,13,0.00,,CLR,0.00,VWS V14.01,2013-01-16 05:16:00,
2013-01-15 22:20:00,22.6,-19.4,30.24,SSW,202,2.0,2.0,14,0.00,,CLR,0.00,VWS V14.01,2013-01-16 05:20:00,
2013-01-15 22:22:00,22.6,-19.4,30.24,SSW,202,2.0,2.0,14,0.00,,CLR,0.00,VWS V14.01,2013-01-16 05:22:00,
2013-01-15 22:24:00,23.0,-19.1,30.24,SSW,202,2.0,2.0,14,0.00,,CLR,0.00,VWS V14.01,2013-01-16 05:24:00,
2013-01-15 22:28:00,22.5,-19.5,30.24,SE,135,1.1,2.0,14,0.00,,CLR,0.00,VWS V14.01,2013-01-16 05:28:00,
2013-01-15 22:30:00,22.8,-19.2,30.24,SE,135,1.1,1.1,14,0.00,,CLR,0.00,VWS V14.01,2013-01-16 05:30:00,
2013-01-15 22:32:00,23.2,-20.4,30.24,SE,135,1.1,1.1,13,0.00,,CLR,0.00,VWS V14.01,2013-01-16 05:32:00,
2013-01-15 22:34:00,23.4,-20.2,30.24,SE,135,1.1,1.1,13,0.00,,CLR,0.00,VWS V14.01,2013-01-16 05:34:00,
2013-01-15 22:38:00,23.5,-20.1,30.24,SE,135,1.1,1.1,13,0.00,,CLR,0.00,VWS V14.01,2013-01-16 05:38:00,
2013-01-15 22:40:00,24.4,-19.4,30.24,SE,135,1.1,1.1,13,0.00,,CLR,0.00,VWS V14.01,2013-01-16 05:40:00,
2013-01-15 22:44:00,24.8,-19.1,30.24,SE,135,1.1,1.1,13,0.00,,CLR,0.00,VWS V14.01,2013-01-16 05:44:00,
2013-01-15 22:46:00,24.4,-19.4,30.24,SE,135,1.1,1.1,13,0.00,,CLR,0.00,VWS V14.01,2013-01-16 05:46:00,
2013-01-15 22:48:00,24.1,-19.6,30.24,SE,135,2.7,2.7,13,0.00,,CLR,0.00,VWS V14.01,2013-01-16 05:48:00,
2013-01-15 22:52:00,23.9,-19.8,30.24,SE,135,2.7,2.7,13,0.00,,CLR,0.00,VWS V14.01,2013-01-16 05:52:00,
2013-01-15 22:54:00,23.5,-20.1,30.24,SE,135,2.7,2.7,13,0.00,,CLR,0.00,VWS V14.01,2013-01-16 05:54:00,
2013-01-15 22:58:00,23.2,-20.4,30.24,SE,135,2.7,2.7,13,0.00,,CLR,0.00,VWS V14.01,2013-01-16 05:58:00,
2013-01-15 23:00:00,23.0,-19.1,30.24,SE,135,2.7,2.7,14,0.00,,CLR,0.00,VWS V14.01,2013-01-16 06:00:00,
2013-01-15 23:02:00,22.8,-19.2,30.24,SE,135,2.7,2.7,14,0.00,,CLR,0.00,VWS V14.01,2013-01-16 06:02:00,
2013-01-15 23:04:00,23.0,-19.1,30.24,SE,135,2.7,2.7,14,0.00,,CLR,0.00,VWS V14.01,2013-01-16 06:04:00,
2013-01-15 23:06:00,22.8,-19.2,30.24,SE,135,2.7,2.7,14,0.00,,CLR,0.00,VWS V14.01,2013-01-16 06:06:00,
2013-01-15 23:08:00,22.6,-19.4,30.24,SE,135,2.7,2.7,14,0.00,,CLR,0.00,VWS V14.01,2013-01-16 06:08:00,
2013-01-15 23:14:00,22.1,-19.8,30.24,SE,135,2.7,2.7,14,0.00,,CLR,0.00,VWS V14.01,2013-01-16 06:14:00,
2013-01-15 23:16:00,22.1,-19.8,30.24,SE,135,2.7,2.7,14,0.00,,CLR,0.00,VWS V14.01,2013-01-16 06:16:00,
2013-01-15 23:18:00,22.1,-19.8,30.24,SE,135,2.7,2.7,14,0.00,,CLR,0.00,VWS V14.01,2013-01-16 06:18:00,
2013-01-15 23:22:00,22.3,-19.7,30.24,SE,135,1.3,2.7,14,0.00,,CLR,0.00,VWS V14.01,2013-01-16 06:22:00,
2013-01-15 23:24:00,22.1,-19.8,30.24,SE,135,1.6,1.6,14,0.00,,CLR,0.00,VWS V14.01,2013-01-16 06:24:00,
2013-01-15 23:28:00,21.9,-20.0,30.24,SE,135,0.0,1.6,14,0.00,,CLR,0.00,VWS V14.01,2013-01-16 06:28:00,
2013-01-15 23:30:00,22.5,-19.5,30.24,SE,135,0.0,0.0,14,0.00,,CLR,0.00,VWS V14.01,2013-01-16 06:30:00,
2013-01-15 23:34:00,23.5,-20.1,30.24,SE,135,0.0,0.0,13,0.00,,CLR,0.00,VWS V14.01,2013-01-16 06:34:00,
2013-01-15 23:38:00,23.4,-20.2,30.24,SE,135,0.0,0.0,13,0.00,,CLR,0.00,VWS V14.01,2013-01-16 06:38:00,
2013-01-15 23:44:00,23.7,-19.9,30.24,SE,135,0.0,0.0,13,0.00,,CLR,0.00,VWS V14.01,2013-01-16 06:44:00,
2013-01-15 23:46:00,23.9,-19.8,30.24,SE,135,0.0,0.0,13,0.00,,CLR,0.00,VWS V14.01,2013-01-16 06:46:00,
2013-01-15 23:48:00,23.7,-19.9,30.24,SE,135,0.0,0.0,13,0.00,,CLR,0.00,VWS V14.01,2013-01-16 06:48:00,
2013-01-15 23:50:00,23.2,-20.4,30.24,SE,135,0.0,0.0,13,0.00,,CLR,0.00,VWS V14.01,2013-01-16 06:50:00,
2013-01-15 23:52:00,23.5,-20.1,30.24,SE,135,0.0,0.0,13,0.00,,CLR,0.00,VWS V14.01,2013-01-16 06:52:00,
2013-01-15 23:54:00,23.7,-19.9,30.24,SE,135,0.0,0.0,13,0.00,,CLR,0.00,VWS V14.01,2013-01-16 06:54:00,
2013-01-15 23:58:00,24.6,-19.2,30.24,SE,135,0.0,0.0,13,0.00,,CLR,0.00,VWS V14.01,2013-01-16 06:58:00,